EDT,Max TemperatureF,Mean TemperatureF,Min TemperatureF,Max Dew PointF,MeanDew PointF,Min DewpointF,Max Humidity, Mean Humidity, Min Humidity, Max Sea Level PressureIn, Mean Sea Level PressureIn, Min Sea Level PressureIn, Max VisibilityMiles, Mean VisibilityMiles, Min VisibilityMiles, Max Wind SpeedMPH, Mean Wind SpeedMPH, Max Gust SpeedMPH,PrecipitationIn, CloudCover, Events, WindDirDegrees
2014-3-1,27,8,-11,7,-6,-17,79,49,23,30.45,30.29,30.03,10,10,10,10,2,,0.00,4,,195
2014-3-2,30,21,10,14,8,0,65,49,40,30.05,30.01,29.96,10,10,10,10,5,,0.00,4,,308
2014-3-3,21,10,-4,-2,-8,-13,75,48,24,30.28,30.14,30.03,10,10,10,13,3,20,0.00,0,,274
2014-3-4,26,5,-16,6,-7,-21,82,52,20,30.36,30.29,30.23,10,10,10,9,2,,0.00,3,,336
2014-3-5,21,14,3,14,8,-6,84,72,51,30.53,30.34,30.26,10,6,0,9,2,,0.03,7,Snow,22
2014-3-6,32,8,-16,-6,-11,-23,83,46,14,30.63,30.56,30.51,10,10,10,5,1,,0.00,0,,117
2014-3-7,37,14,-9,14,-1,-15,79,50,13,30.49,30.25,29.96,10,10,10,9,3,18,0.00,0,,172
2014-3-8,46,26,7,24,15,4,88,65,31,29.93,29.81,29.70,10,10,10,9,2,21,0.00,2,,316
2014-3-9,34,21,8,14,5,-4,87,49,26,29.93,29.88,29.86,10,10,10,10,2,23,0.00,1,,296
2014-3-10,37,28,19,26,15,3,82,57,44,29.86,29.75,29.65,10,10,2,7,2,,0.00,8,Snow,166
2014-3-11,46,36,26,33,27,24,96,82,49,29.71,29.55,29.46,10,5,0,9,1,17,0.18,6,Fog-Snow,302
2014-3-12,33,30,26,32,29,22,96,90,72,29.72,29.46,29.17,10,3,0,16,4,28,1.50,8,Fog-Rain-Snow,4
2014-3-13,24,18,9,21,13,0,89,77,54,29.83,29.30,29.11,10,4,0,15,11,24,0.07,7,Snow,350
2014-3-14,28,19,10,18,7,-4,92,57,45,30.09,29.97,29.86,10,10,10,12,8,23,0.00,2,,212
2014-3-15,48,37,28,34,26,18,82,66,48,29.82,29.70,29.62,10,10,9,16,5,23,0.00,6,Rain,235
2014-3-16,33,22,10,23,1,-10,66,42,32,30.20,30.05,29.81,10,10,10,16,10,32,0.00,1,,306
2014-3-17,28,11,-5,-2,-7,-12,80,49,23,30.20,30.14,30.04,10,10,10,7,2,,0.00,0,,4
2014-3-18,39,16,-6,9,-2,-11,79,49,18,30.36,30.30,30.19,10,10,10,5,1,,0.00,0,,20
2014-3-19,37,20,5,29,21,1,96,81,46,30.41,30.22,30.05,10,5,0,9,2,,0.55,5,Fog-Snow,130
2014-3-20,48,37,28,35,28,22,96,85,55,30.04,29.75,29.52,10,4,0,10,4,22,0.67,8,Fog-Snow,331
2014-3-21,37,33,30,21,17,11,59,50,43,29.96,29.78,29.63,10,10,10,17,9,29,0.00,5,,276
2014-3-22,37,24,12,29,21,9,92,74,46,30.00,29.81,29.64,10,7,0,14,4,28,0.04,5,Fog-Snow,250
2014-3-23,32,22,6,21,7,-5,81,49,29,30.10,29.96,29.87,10,10,10,16,7,26,0.00,1,,285
2014-3-24,26,10,-6,-3,-6,-12,80,49,24,30.14,30.09,30.04,10,10,10,16,4,24,0.00,0,,299
2014-3-25,33,12,-9,7,-1,-15,83,54,29,30.13,30.07,30.02,10,10,10,12,2,22,0.00,1,,245
2014-3-26,30,24,18,11,8,0,65,50,38,30.00,29.81,29.63,10,10,10,25,8,38,0.00,5,,330
2014-3-27,37,22,8,10,-2,-8,48,30,20,30.24,30.17,29.95,10,10,10,13,8,26,0.00,2,,225
2014-3-28,45,37,30,41,30,9,97,79,35,30.18,29.99,29.90,10,10,4,9,4,,0.11,7,Rain,208
2014-3-29,51,44,36,41,33,30,93,71,46,30.26,30.17,29.98,10,10,10,10,5,17,0.05,5,Rain,81
2014-3-30,36,34,33,34,32,28,100,90,76,30.12,29.87,29.77,10,5,1,15,9,24,0.79,8,Rain-Snow,11
2014-3-31,41,36,34,30,26,24,85,70,58,30.06,29.88,29.77,10,10,10,18,10,30,0.07,7,Rain,355